| time (UTC) | temp F | wind direction | speed knots | gust knots | rain 1hr in | rain 24hr in | rain mn in | humidity % | barometer mb |
| 20260503021606 | 60 | 328 | 0.0 | 0.0 | 0.00 | 0.01 | 0.00 | 78 | 1018.8 |
| 20260503020020 | 60 | 328 | 0.0 | 0.0 | 0.00 | 0.01 | 0.00 | 76 | 1018.6 |
| 20260503014536 | 61 | 328 | 0.0 | 0.0 | 0.00 | 0.03 | 0.00 | 72 | 1018.4 |
| 20260503013026 | 63 | 328 | 0.0 | 0.0 | 0.00 | 0.03 | 0.00 | 70 | 1018.2 |
| 20260503011521 | 65 | 328 | 0.0 | 0.0 | 0.00 | 0.03 | 0.00 | 66 | 1018.1 |
| 20260503010011 | 67 | 328 | 0.0 | 0.0 | 0.00 | 0.03 | 0.00 | 62 | 1017.9 |
| 20260503004611 | 70 | 328 | 0.0 | 0.9 | 0.00 | 0.03 | 0.00 | 57 | 1017.8 |
| 20260503003006 | 73 | 328 | 0.0 | 4.3 | 0.00 | 0.03 | 0.00 | 45 | 1017.8 |
| 20260503000109 | 74 | 335 | 0.0 | 5.2 | 0.00 | 0.03 | 0.00 | 43 | 1017.7 |
| 20260502234617 | 74 | 325 | 0.9 | 7.0 | 0.00 | 0.04 | 0.00 | 42 | 1017.7 |
| 20260502233111 | 75 | 359 | 1.7 | 7.0 | 0.00 | 0.04 | 0.00 | 43 | 1017.7 |
| 20260502231520 | 75 | 335 | 3.5 | 6.1 | 0.00 | 0.04 | 0.00 | 43 | 1017.6 |
| 20260502230017 | 75 | 354 | 2.6 | 4.3 | 0.00 | 0.04 | 0.00 | 45 | 1017.6 |
| 20260502224621 | 74 | 322 | 0.9 | 7.8 | 0.00 | 0.04 | 0.00 | 44 | 1017.7 |
| 20260502223107 | 76 | 303 | 2.6 | 7.0 | 0.00 | 0.04 | 0.00 | 43 | 1017.5 |
| 20260502221506 | 76 | 354 | 2.6 | 7.8 | 0.00 | 0.04 | 0.00 | 41 | 1017.6 |
| 20260502220111 | 76 | 4 | 2.6 | 7.8 | 0.00 | 0.04 | 0.00 | 43 | 1017.6 |
| 20260502214514 | 76 | 319 | 3.5 | 7.0 | 0.00 | 0.04 | 0.00 | 39 | 1017.6 |
| 20260502213017 | 75 | 319 | 5.2 | 10.4 | 0.00 | 0.04 | 0.00 | 41 | 1017.5 |
| 20260502211523 | 76 | 245 | 3.5 | 8.7 | 0.00 | 0.04 | 0.00 | 40 | 1017.8 |
| 20260502210017 | 75 | 291 | 2.6 | 7.0 | 0.00 | 0.04 | 0.00 | 41 | 1017.7 |
| 20260502204514 | 75 | 44 | 1.7 | 7.8 | 0.00 | 0.04 | 0.00 | 44 | 1018.1 |
| 20260502203016 | 75 | 316 | 2.6 | 8.7 | 0.00 | 0.04 | 0.00 | 45 | 1018.3 |
| 20260502200106 | 74 | 303 | 1.7 | 6.1 | 0.00 | 0.04 | 0.00 | 45 | 1018.8 |
| 20260502194510 | 74 | 299 | 3.5 | 6.1 | 0.00 | 0.06 | 0.00 | 46 | 1018.9 |
| 20260502193106 | 73 | 247 | 1.7 | 6.1 | 0.00 | 0.06 | 0.00 | 45 | 1019.0 |
| 20260502191606 | 73 | 348 | 0.9 | 7.8 | 0.00 | 0.06 | 0.00 | 47 | 1019.3 |
| 20260502190110 | 73 | 318 | 2.6 | 7.0 | 0.00 | 0.06 | 0.00 | 44 | 1019.4 |
| 20260502184607 | 73 | 132 | 1.7 | 6.1 | 0.00 | 0.09 | 0.00 | 43 | 1019.5 |
| 20260502183011 | 72 | 274 | 1.7 | 7.0 | 0.00 | 0.09 | 0.00 | 44 | 1019.8 |
| 20260502181609 | 72 | 13 | 1.7 | 5.2 | 0.00 | 0.09 | 0.00 | 46 | 1020.0 |
| 20260502180116 | 72 | 330 | 1.7 | 6.1 | 0.00 | 0.09 | 0.00 | 46 | 1020.1 |
| 20260502170105 | 70 | 91 | 0.9 | 6.1 | 0.00 | 0.15 | 0.00 | 50 | 1020.7 |
| 20260502163028 | 69 | 354 | 2.6 | 7.8 | 0.00 | 0.32 | 0.00 | 56 | 1020.6 |
| 20260502161618 | 69 | 48 | 0.9 | 5.2 | 0.00 | 0.32 | 0.00 | 56 | 1020.7 |
| 20260502151516 | 66 | 66 | 2.6 | 7.0 | 0.00 | 0.45 | 0.00 | 59 | 1020.3 |
| 20260502130110 | 58 | 301 | 0.0 | 3.5 | 0.00 | 0.66 | 0.00 | 84 | 1019.4 |
| 20260502123005 | 56 | 328 | 0.0 | 0.9 | 0.00 | 0.78 | 0.00 | 91 | 1018.6 |
| 20260502121608 | 55 | 328 | 0.0 | 0.9 | 0.00 | 0.78 | 0.00 | 91 | 1018.5 |
| 20260502114509 | 54 | 325 | 0.0 | 0.9 | 0.00 | 0.79 | 0.00 | 91 | 1018.0 |
| 20260502113106 | 54 | 325 | 0.0 | 1.7 | 0.00 | 0.79 | 0.00 | 91 | 1017.8 |
| 20260502111515 | 54 | 310 | 0.0 | 0.9 | 0.00 | 0.79 | 0.00 | 90 | 1017.5 |
| 20260502110006 | 55 | 328 | 0.0 | 3.5 | 0.00 | 0.79 | 0.00 | 89 | 1017.3 |
| 20260502104523 | 55 | 346 | 0.0 | 3.5 | 0.00 | 0.79 | 0.00 | 90 | 1017.0 |
| 20260502103114 | 55 | 322 | 0.0 | 1.7 | 0.00 | 0.79 | 0.00 | 89 | 1016.8 |
| 20260502101514 | 56 | 333 | 0.9 | 3.5 | 0.00 | 0.79 | 0.00 | 89 | 1016.8 |
| 20260502090116 | 56 | 354 | 0.9 | 4.3 | 0.00 | 0.79 | 0.00 | 89 | 1016.5 |
| 20260502071520 | 56 | 354 | 0.0 | 4.3 | 0.00 | 0.79 | 0.00 | 91 | 1016.6 |
| 20260502070013 | 56 | 342 | 0.0 | 1.7 | 0.00 | 0.79 | 0.00 | 91 | 1016.3 |
| 20260502064511 | 56 | 298 | 0.0 | 1.7 | 0.00 | 0.79 | 0.00 | 91 | 1016.5 |
| 20260502063016 | 56 | 347 | 0.0 | 2.6 | 0.00 | 0.79 | 0.00 | 91 | 1016.8 |
| 20260502061512 | 56 | 354 | 0.0 | 0.0 | 0.00 | 0.79 | 0.00 | 92 | 1016.7 |
| 20260502060008 | 56 | 359 | 0.0 | 1.7 | 0.00 | 0.79 | 0.00 | 92 | 1016.8 |
| 20260502054611 | 56 | 332 | 0.0 | 0.9 | 0.00 | 0.79 | 0.00 | 93 | 1016.7 |
| 20260502053015 | 56 | 332 | 0.0 | 0.9 | 0.00 | 0.79 | 0.00 | 93 | 1016.7 |
| 20260502051531 | 55 | 328 | 0.0 | 1.7 | 0.00 | 0.79 | 0.00 | 93 | 1016.7 |
| 20260502050010 | 55 | 330 | 0.0 | 1.7 | 0.00 | 0.79 | 0.79 | 94 | 1016.4 |
| 20260502044506 | 55 | 328 | 0.0 | 0.0 | 0.00 | 0.79 | 0.79 | 94 | 1016.1 |
| 20260502043008 | 56 | 328 | 0.0 | 0.9 | 0.00 | 0.79 | 0.79 | 94 | 1016.0 |
| 20260502041619 | 56 | 328 | 0.0 | 0.0 | 0.00 | 0.79 | 0.79 | 94 | 1016.3 |
| 20260502040009 | 56 | 328 | 0.0 | 0.9 | 0.00 | 0.79 | 0.79 | 94 | 1016.4 |
| 20260502034513 | 56 | 328 | 0.0 | 0.0 | 0.00 | 0.79 | 0.79 | 93 | 1016.3 |
| 20260502033004 | 56 | 328 | 0.0 | 0.0 | 0.01 | 0.79 | 0.79 | 93 | 1016.1 |
| 20260502031508 | 56 | 328 | 0.0 | 0.9 | 0.01 | 0.79 | 0.79 | 93 | 1016.1 |
| 20260502030008 | 56 | 319 | 0.0 | 0.0 | 0.01 | 0.79 | 0.79 | 92 | 1016.3 |
| 20260502024611 | 56 | 319 | 0.0 | 0.0 | 0.01 | 0.79 | 0.79 | 92 | 1016.2 |
| 20260502023025 | 56 | 319 | 0.0 | 0.0 | 0.01 | 0.78 | 0.78 | 91 | 1016.4 |